Location: Central Falls
(41.8900°N, 71.3929°W)
Time: 13:02:41
(UTC+00:00)

Courier 1B Rocket - Pass Details

Date: 11 December 2023
Orbit: 920 x 1202 km, 28.2° (Epoch: 01 March)

Event Time Altitude Azimuth Distance (km) Brightness Sun altitude
Rises 19:08:03 0° 253° (WSW) 3,711 8.9 16.5°
Reaches altitude 10° 19:12:50 10° 224° (SW) 2,694 9.8 16.0°
Maximum altitude 19:15:00 12° 204° (SSW) 2,539 9.3 15.7°
Drops below altitude 10° 19:17:09 10° 184° (S) 2,645 8.4 15.5°
Sets 19:21:43 0° 153° (SSE) 3,552 8.3 15.0°
